Wind_Speed
18 18 18 17 17 17 17 17 15 15 16 16 16 15 15 14 14 12 10 9 8 8 7 5 4 4 5 7 11 19 30 41 43 46 39 29 32 32 30 27 24 22 20 19 22 19 16 18 15 15 16 11 7 5 6 6 5 5 4 5 4 2 1 2 2 2 1 2 5 5 4 5 3 5 2 3 8 6 2 2 3 2 1 3 3 7 14 19
20 20 19 18 18 18 18 17 16 15 15 15 15 14 15 16 15 14 12 11 10 10 9 7 6 3 2 2 4 9 19 35 40 38 37 35 36 33 29 27 23 20 21 22 23 22 15 11 12 15 12 5 6 7 5 5 6 5 4 5 3 3 1 3 2 1 1 1 4 5 3 5 4 4 3 3 6 9 8 6 5 3 3 5 6 10 17 22
23 22 20 19 19 19 19 20 19 18 17 16 16 16 17 17 16 16 14 13 12 11 11 11 9 6 6 5 5 3 7 21 28 27 36 38 35 33 30 26 21 18 20 21 20 18 14 9 13 15 9 6 6 6 6 5 4 4 4 5 1 5 2 1 1 1 1 1 2 5 3 4 4 3 3 2 3 7 6 6 6 7 8 7 8 11 17 22
24 23 20 20 19 19 20 22 22 20 19 18 17 18 18 18 17 16 14 14 14 15 16 15 14 11 9 8 6 3 2 10 14 21 34 35 33 31 29 25 20 18 17 21 21 18 18 17 18 14 8 7 6 6 8 6 3 4 4 6 4 4 4 1 0 2 2 2 2 4 5 4 2 3 3 3 3 5 3 5 4 6 10 8 7 10 16 21
25 23 20 19 18 18 20 22 22 21 20 19 18 19 19 19 18 17 15 13 14 17 20 22 23 19 7 6 7 5 2 6 10 26 32 30 31 28 26 25 21 17 16 24 25 25 26 20 14 9 7 6 6 6 6 7 4 5 4 5 5 4 4 2 1 2 1 4 4 3 5 2 1 3 2 5 4 2 4 4 6 7 7 5 6 10 15 18
25 22 20 18 17 17 18 19 20 20 19 18 18 18 19 19 19 19 17 13 12 15 19 20 22 25 22 13 9 8 8 4 11 27 28 27 28 25 24 25 21 15 17 25 26 26 24 15 11 8 5 7 8 8 5 7 5 5 4 3 3 4 4 2 1 2 3 5 3 1 2 1 3 1 1 5 3 4 5 6 7 6 3 4 7 10 12 14
25 22 19 17 15 15 15 16 18 18 17 17 18 18 18 18 20 21 22 19 12 9 9 10 13 16 23 30 32 26 13 3 16 25 25 24 25 23 22 24 24 21 22 28 25 17 12 12 11 6 5 8 8 8 7 7 8 7 4 0 2 3 3 4 3 3 5 4 2 1 2 1 2 0 1 2 4 6 6 7 6 3 6 9 10 10 10 11
24 22 18 15 14 14 14 16 17 17 16 16 16 17 17 17 18 19 23 25 23 19 10 6 10 9 13 20 22 20 9 7 20 25 24 21 23 24 21 23 26 28 29 30 23 10 6 8 7 3 6 6 3 4 3 6 9 7 4 2 1 1 1 2 2 1 3 3 1 3 3 3 4 1 1 3 6 6 6 7 7 7 9 10 8 8 10 12
24 22 18 16 15 15 16 17 17 16 15 15 16 15 16 16 17 18 20 23 27 32 27 18 15 13 16 10 6 12 8 13 21 24 24 20 22 25 24 25 27 29 30 29 27 19 8 5 5 4 7 3 3 3 2 5 5 2 4 2 2 0 1 0 1 2 3 2 2 4 2 6 5 1 1 5 6 6 4 6 6 6 7 6 5 7 9 11
23 20 19 18 17 17 17 17 16 16 15 15 15 14 15 15 17 19 21 23 23 27 30 30 28 28 30 16 8 12 9 18 24 23 20 18 20 25 27 28 27 28 27 26 29 23 9 2 2 4 7 4 4 4 5 5 4 2 4 3 4 2 1 2 2 3 3 3 1 3 4 5 2 0 2 6 6 4 4 6 4 5 5 4 4 6 9 11
22 19 18 18 18 19 18 19 18 17 15 14 14 14 15 14 15 17 21 25 27 26 24 24 28 34 43 32 14 9 11 19 25 23 18 16 19 23 24 25 25 26 24 24 26 21 12 4 1 3 4 4 3 6 6 3 4 4 5 4 3 4 4 5 4 5 3 2 1 2 2 4 2 1 4 6 4 0 3 4 4 5 4 4 4 5 9 10
20 18 17 18 19 20 21 22 20 18 15 13 12 13 15 15 14 14 16 19 23 25 23 22 21 22 32 30 11 5 14 22 25 22 17 15 16 18 19 20 22 23 21 20 21 21 18 12 9 6 2 3 3 4 3 2 4 3 5 4 3 6 5 5 4 5 4 2 5 3 3 5 2 4 6 5 1 3 5 3 4 5 3 4 3 5 8 10
19 18 17 18 20 21 22 22 21 20 18 15 12 10 13 14 13 14 15 14 13 14 16 18 19 20 22 13 6 14 18 22 25 19 15 15 12 11 13 15 17 19 19 16 17 20 17 17 20 11 3 5 2 1 2 3 4 1 2 4 2 6 4 4 3 5 4 2 6 4 2 5 5 7 8 4 2 3 4 3 3 4 4 4 4 4 5 9
18 17 17 18 18 17 17 17 18 18 18 18 14 10 10 11 12 15 16 14 13 14 13 10 8 18 21 4 4 19 20 21 25 22 19 18 13 11 11 12 14 15 16 14 14 17 15 17 21 11 4 5 1 2 3 4 4 1 3 2 3 4 4 6 3 5 5 3 6 6 2 5 6 8 8 4 4 4 2 2 2 3 4 4 4 4 4 8
16 14 14 13 12 12 13 14 14 15 15 17 18 13 9 10 12 13 14 14 15 14 14 14 8 9 12 3 5 18 21 23 27 28 24 19 17 16 15 13 13 13 14 14 11 12 16 20 17 7 3 4 4 5 4 3 4 3 3 3 3 3 4 7 2 4 6 5 5 6 1 4 6 8 6 3 4 5 2 2 2 3 4 4 4 4 4 6
12 11 10 8 8 10 12 13 13 13 13 14 21 22 13 9 11 13 14 14 16 15 13 15 13 10 7 1 9 15 19 22 25 28 21 15 16 17 18 13 10 10 11 14 11 8 13 17 11 3 3 6 6 4 3 4 4 4 4 1 3 3 5 6 1 4 6 5 5 4 1 3 5 6 6 2 4 5 3 3 3 3 4 4 3 4 3 5
10 9 8 8 9 10 12 14 13 11 11 13 21 28 26 16 7 5 2 3 8 12 16 18 12 11 9 6 8 9 14 19 23 28 22 14 13 16 18 12 9 10 5 9 13 9 10 9 4 2 4 6 5 3 4 5 5 4 4 1 2 3 4 5 3 5 9 5 5 5 0 4 7 7 8 4 4 5 4 3 4 3 4 4 3 4 4 4
9 7 7 7 8 11 14 15 13 10 7 9 14 22 29 28 21 17 12 6 3 5 13 22 16 8 7 9 7 10 17 18 21 27 24 14 10 15 17 10 8 10 4 6 11 8 7 5 3 2 4 7 7 6 5 2 2 2 3 3 3 4 2 4 5 5 11 8 4 5 4 7 10 8 6 4 4 4 3 3 3 2 4 4 3 4 4 4
9 7 6 6 8 11 15 15 14 11 5 5 7 8 12 16 23 33 36 27 12 5 5 12 10 5 2 6 10 16 15 12 17 25 28 19 9 11 16 11 7 7 5 4 7 6 4 4 5 4 5 7 5 4 3 3 4 4 3 1 3 6 3 5 5 4 10 9 3 5 5 8 11 10 7 4 3 4 1 1 1 2 4 3 3 4 4 4
11 9 7 7 9 11 14 15 13 13 9 3 5 0 3 4 8 14 23 23 12 8 6 2 3 4 2 5 12 18 10 6 14 26 33 24 11 9 14 12 7 7 6 2 4 5 4 7 6 2 3 6 5 2 2 5 4 4 2 1 3 4 5 6 4 3 9 7 3 4 7 9 9 8 8 3 3 4 2 0 2 2 3 3 2 4 4 4
12 10 8 8 10 12 13 12 12 14 12 7 6 5 2 2 6 2 3 9 8 9 9 3 3 4 2 4 12 15 6 4 14 27 34 23 10 7 9 9 7 7 6 2 2 4 5 9 4 4 5 6 4 2 2 1 1 2 2 1 3 2 6 8 3 3 8 4 4 6 9 10 8 7 7 1 4 1 2 2 1 1 2 2 3 5 5 4
12 11 10 10 10 12 13 11 11 12 11 11 15 14 6 5 9 7 4 5 5 7 6 4 6 4 2 3 11 12 4 6 13 22 31 22 11 7 4 7 9 5 7 4 3 6 7 7 5 6 4 3 3 4 5 4 4 2 2 1 3 2 5 7 2 6 8 2 3 8 8 8 8 6 5 3 2 2 3 2 3 2 1 3 4 5 4 4
12 11 10 9 9 10 12 12 9 8 10 14 18 15 9 9 9 6 4 5 2 4 4 5 5 5 5 5 12 12 5 7 5 13 25 19 7 5 3 6 7 4 7 8 6 5 5 3 6 4 1 3 4 6 8 5 3 2 2 2 3 3 3 4 2 9 9 1 2 8 5 5 6 6 5 4 2 3 3 3 2 1 2 4 5 5 4 4
11 11 10 9 7 6 8 10 7 8 13 17 19 14 10 8 6 4 3 4 2 2 2 2 3 3 4 4 13 9 3 3 1 8 19 13 3 2 4 4 5 5 4 6 8 8 3 4 5 4 5 4 3 6 8 6 5 3 0 2 2 3 1 4 5 9 7 1 2 6 3 3 5 6 6 4 4 4 4 5 5 4 3 4 5 5 4 4
11 10 10 10 7 4 4 7 8 11 13 13 14 11 8 6 4 3 3 4 4 2 2 1 2 5 4 5 12 6 2 2 1 6 13 11 5 2 3 2 4 5 1 2 7 6 2 4 3 5 6 6 4 4 4 3 5 5 2 2 2 3 3 4 7 7 4 3 5 7 5 4 5 5 6 5 5 6 4 5 6 5 5 4 5 6 5 4
12 10 10 11 8 5 2 3 6 8 7 7 9 7 6 6 4 3 3 5 4 3 5 3 1 8 8 8 11 4 3 5 4 6 12 13 7 1 3 3 2 4 1 2 4 2 2 4 4 5 4 6 5 2 0 2 5 5 2 2 2 2 3 4 5 3 3 1 4 5 4 3 5 5 6 5 6 7 6 6 6 5 5 4 5 6 5 5
13 11 10 10 10 7 2 2 3 3 2 3 6 5 5 5 4 3 3 5 4 2 4 5 2 7 8 9 11 3 3 7 6 8 12 14 10 1 4 4 2 4 0 3 3 1 2 6 7 6 5 6 6 4 2 1 4 4 1 3 2 6 6 2 2 2 1 2 4 5 3 2 3 5 6 5 6 8 7 7 7 5 5 5 5 6 6 5
14 12 10 10 11 9 6 3 2 3 4 5 4 4 4 2 1 3 5 4 3 1 1 3 3 6 7 9 11 6 1 6 3 8 13 14 12 3 4 3 2 3 3 4 3 1 2 5 6 5 6 6 4 4 3 1 1 5 2 2 5 5 2 2 4 1 1 2 4 6 3 2 3 6 5 4 4 6 7 7 8 6 5 6 6 6 6 6
15 14 12 10 9 10 7 4 4 5 6 6 4 3 2 2 2 3 6 4 2 2 1 3 4 6 8 8 8 5 3 4 3 7 12 12 13 7 3 0 4 2 4 5 4 1 1 1 1 2 4 3 5 6 3 3 3 7 1 3 2 2 3 3 4 1 2 5 2 6 4 3 3 5 5 4 3 5 6 5 5 5 5 5 6 6 6 5
16 15 14 11 8 7 6 5 6 6 5 4 3 2 1 2 4 6 5 1 1 2 1 3 3 4 8 7 6 6 5 4 2 6 7 4 10 9 3 1 4 5 3 5 4 0 2 2 2 2 2 2 5 6 2 4 5 6 4 4 4 4 3 3 2 2 4 3 3 5 2 2 2 5 3 2 2 4 4 5 5 5 5 5 5 6 5 5
15 16 15 13 11 8 5 4 5 4 4 3 2 2 2 2 5 7 2 1 0 3 3 4 3 4 8 6 4 6 5 5 5 6 6 3 8 10 5 3 4 4 4 5 4 2 3 2 0 2 1 1 3 4 2 1 3 5 4 3 3 3 3 4 4 4 5 3 4 4 2 1 1 4 3 4 6 5 4 4 6 6 5 5 5 6 5 5
13 15 16 15 13 11 6 3 3 3 2 2 1 3 3 3 5 3 1 3 2 2 2 2 3 5 6 4 4 5 4 5 5 4 4 3 6 6 5 4 2 4 6 4 4 4 2 0 2 3 2 1 3 4 4 4 5 6 5 4 4 3 4 4 4 3 2 4 3 1 4 1 3 5 5 6 7 5 4 5 6 6 5 5 5 6 5 5
11 13 16 16 14 11 8 4 2 2 0 1 2 4 6 6 3 1 3 2 1 2 1 0 3 3 4 4 5 5 3 3 5 5 2 2 4 3 3 5 5 4 2 2 4 5 3 3 4 4 2 2 4 3 3 4 5 6 4 3 4 3 5 4 4 3 2 5 4 1 2 1 3 4 5 6 7 6 5 5 5 5 5 6 6 5 5 5
9 12 15 17 16 13 9 6 3 2 1 2 4 5 7 5 1 1 2 3 1 2 1 0 3 3 3 3 2 4 2 2 4 5 4 4 5 4 4 7 8 4 1 2 3 3 3 4 4 3 2 3 4 1 1 1 3 4 1 3 4 3 3 2 2 1 3 6 6 4 1 1 4 4 4 5 6 5 5 5 5 4 4 5 5 5 5 6
7 10 15 18 18 15 11 7 3 2 1 3 6 7 6 2 2 2 1 4 1 2 2 1 3 4 4 3 2 2 1 1 3 5 5 4 3 2 4 5 6 4 2 3 2 1 1 4 5 2 2 2 2 2 2 3 1 2 1 4 2 2 3 1 2 4 2 3 5 4 1 4 4 3 4 6 6 5 5 5 6 6 5 5 5 5 5 5
4 7 13 18 19 15 12 8 4 1 1 5 8 5 3 3 2 3 2 1 0 0 1 3 3 5 4 4 3 4 1 2 2 4 3 3 1 0 2 2 3 4 3 2 1 2 2 4 4 3 2 1 1 2 1 1 1 2 2 2 1 2 5 2 2 2 3 2 4 3 3 6 3 1 4 7 7 7 7 6 6 6 7 6 5 6 5 6
3 3 8 17 20 15 12 9 4 1 3 7 7 3 2 1 2 2 1 1 0 1 3 1 2 3 2 3 4 6 3 1 2 4 2 2 1 1 1 1 1 1 1 1 0 1 1 5 4 2 1 2 2 1 3 3 1 2 2 1 1 2 4 3 1 3 5 2 4 3 4 6 3 1 5 8 8 7 7 6 6 7 6 6 6 6 6 6
3 1 4 15 20 15 12 10 4 1 5 8 6 3 1 0 1 2 1 1 1 1 4 3 0 1 1 1 3 5 4 3 3 4 1 1 1 2 1 1 1 0 2 1 0 1 0 4 5 1 1 4 2 3 3 4 3 3 2 2 2 3 2 2 1 1 3 3 5 5 5 5 2 3 4 6 4 5 6 5 6 7 6 6 6 7 7 6
4 1 2 14 20 15 12 9 3 3 7 6 3 2 1 1 1 1 1 1 0 2 3 2 1 1 2 2 1 4 3 2 2 3 1 1 1 2 2 0 1 1 2 1 1 1 1 1 4 4 2 4 4 3 2 4 4 3 2 2 2 3 1 1 0 1 1 1 3 4 4 4 4 5 3 5 6 6 5 5 6 6 6 6 7 7 7 6
4 2 1 12 19 14 10 8 6 7 7 4 3 2 1 0 2 2 1 1 0 1 1 2 2 2 1 2 1 2 2 2 1 1 1 0 1 1 1 1 1 2 2 3 2 1 2 1 3 5 4 2 2 2 0 1 2 3 3 3 3 2 1 1 1 1 2 1 1 3 5 6 5 4 4 7 6 6 5 4 5 6 6 7 8 7 6 6
4 3 2 12 19 13 7 9 8 6 4 3 2 2 1 2 1 2 1 1 0 0 1 3 3 2 2 1 1 1 1 2 1 1 1 1 1 1 1 1 1 2 2 3 3 1 1 1 2 5 5 2 1 2 2 3 3 2 1 2 2 1 2 2 2 3 1 2 3 1 4 8 6 3 5 6 5 6 5 4 6 6 7 8 8 7 7 6
4 3 2 12 18 10 6 8 4 3 4 2 1 0 0 2 2 1 1 0 1 0 1 3 3 2 2 1 0 1 0 1 1 1 1 1 1 2 0 2 2 0 1 1 2 1 1 2 0 4 4 4 4 2 1 2 3 3 1 2 3 2 3 3 2 3 1 1 1 2 2 7 6 3 4 4 4 5 5 5 6 7 7 8 8 8 7 6
3 1 2 12 16 5 7 6 3 4 3 1 1 1 1 1 2 1 0 0 0 0 2 2 1 1 1 1 1 1 1 1 1 1 1 2 2 2 1 1 1 1 2 0 2 1 1 2 1 4 4 4 5 3 2 2 2 3 0 1 2 0 2 4 4 2 1 2 1 2 2 7 6 3 3 4 4 5 6 6 6 6 7 8 8 8 7 6
2 2 2 11 13 2 5 3 1 2 0 1 2 2 1 1 1 1 0 0 1 1 2 1 1 0 1 2 3 2 1 0 1 1 1 2 2 0 2 2 1 2 1 1 1 1 1 0 2 3 5 6 6 5 5 5 2 1 2 1 2 2 4 2 0 2 1 4 5 3 4 7 5 3 3 5 6 8 8 7 6 6 7 8 8 8 7 6
2 0 2 9 12 8 5 3 6 5 3 2 3 1 1 2 1 1 1 1 1 2 2 1 1 2 3 2 3 1 1 1 1 1 1 1 2 1 3 3 2 2 1 1 1 1 1 1 1 2 1 3 4 4 3 3 3 2 1 2 2 2 3 0 1 2 2 4 5 5 6 6 7 7 7 7 8 10 12 11 9 7 7 7 7 7 7 6
2 1 2 6 10 9 4 1 5 6 5 4 3 1 2 2 1 1 1 0 0 2 2 1 1 3 3 2 2 2 2 2 1 1 0 3 3 1 2 2 2 2 1 2 3 2 2 1 3 5 5 5 6 7 3 2 4 6 4 3 4 3 3 3 3 3 4 3 3 8 9 9 14 14 10 9 10 11 12 11 10 9 8 8 8 8 8 6
2 2 1 2 3 4 4 3 4 4 4 5 3 3 4 2 1 1 1 0 1 1 1 1 2 2 2 2 2 0 2 2 2 1 2 3 2 2 1 2 2 1 0 2 3 3 3 2 4 6 9 9 9 10 7 4 6 9 8 7 6 6 5 6 6 6 4 4 4 9 7 8 16 15 10 11 12 11 11 11 11 9 9 9 8 9 9 8
2 2 2 1 0 1 2 2 3 5 4 4 3 3 4 3 2 2 1 1 2 1 1 0 2 4 5 4 3 2 1 2 1 2 2 2 2 2 2 2 1 4 2 2 3 3 4 3 4 4 7 10 10 11 10 7 8 9 10 10 9 7 9 10 11 8 6 6 8 5 3 8 15 16 14 14 13 11 11 11 10 9 9 8 8 8 8 8
2 2 0 1 1 3 1 1 4 6 5 4 3 2 5 6 5 4 1 2 2 3 1 1 5 5 6 4 3 3 2 1 2 3 2 2 2 1 1 0 1 3 3 2 2 1 3 3 3 1 6 11 11 12 10 7 7 8 10 12 11 10 11 13 13 10 10 13 14 11 11 15 17 17 16 14 12 10 10 9 9 10 9 8 8 8 8 8
2 3 1 2 3 1 1 2 4 4 3 3 2 2 4 7 7 3 2 4 2 2 2 4 6 3 5 5 4 3 6 6 3 4 4 2 2 1 2 2 1 2 2 2 1 2 0 2 2 2 5 9 8 6 5 5 7 10 12 12 11 10 10 11 12 9 9 13 15 14 14 17 17 14 12 11 10 8 8 9 9 9 9 8 8 9 9 8
3 3 3 4 3 1 1 2 3 4 2 0 2 3 3 6 7 5 2 4 5 5 6 7 5 2 4 4 4 6 7 7 5 5 7 5 2 3 2 1 3 3 0 1 0 1 1 1 2 5 4 7 4 4 7 8 7 11 15 14 11 8 7 8 8 8 10 10 9 7 9 12 12 8 5 7 8 7 9 10 9 9 8 7 8 9 9 9
4 2 2 4 3 1 0 1 2 2 2 2 3 4 3 4 6 6 3 1 3 5 7 7 6 5 4 3 7 8 6 7 6 6 5 4 1 1 0 1 4 4 3 3 1 0 2 1 2 3 2 7 6 7 10 9 4 4 8 8 8 7 5 5 5 8 11 8 5 5 8 8 5 4 6 8 9 9 9 9 7 8 8 8 9 9 10 10
Wind_Direction
38 38 39 43 49 53 51 48 57 69 73 71 65 60 52 46 41 36 28 17 10 5 1 3 19 39 52 50 53 47 37 43 42 35 34 15 360 6 7 11 12 17 27 26 35 42 43 37 26 45 55 41 18 345 9 25 27 47 75 72 92 100 86 148 176 206 101 331 310 327 10 50 6 335 347 31 17 2 347 39 34 21 32 352 322 347 359 5
41 41 43 50 56 58 55 55 66 74 72 65 57 51 44 45 46 46 41 35 32 20 13 0 347 318 319 338 31 45 37 36 36 28 20 11 12 16 15 20 22 24 28 33 36 35 41 14 7 49 53 27 5 351 1 13 30 61 102 78 111 170 167 160 171 270 54 288 298 335 18 56 11 328 4 24 351 360 10 349 355 346 323 360 353 1 9 9
46 46 50 56 60 61 61 64 72 72 67 59 52 47 45 49 51 50 48 47 46 40 34 17 359 318 288 269 286 356 27 28 33 19 6 10 16 17 20 25 30 35 33 41 44 42 53 33 41 64 60 49 21 5 30 13 24 58 96 80 134 183 147 145 118 51 325 260 343 341 4 59 10 335 22 43 354 6 9 321 335 342 327 343 357 11 16 13
49 50 54 59 64 65 66 71 73 70 64 58 54 53 53 53 52 48 47 48 50 53 49 36 21 342 286 250 268 275 356 32 30 360 360 11 15 17 26 29 35 47 50 59 62 58 60 50 53 65 66 57 10 23 40 4 33 53 71 113 169 165 100 335 3 53 10 47 58 332 1 45 20 21 42 81 46 351 312 274 287 304 310 325 352 10 21 19
50 50 54 62 69 69 71 72 70 66 62 61 61 60 59 57 54 49 45 47 56 64 60 52 41 23 355 245 249 260 5 46 355 350 1 10 14 20 29 34 42 51 60 69 64 57 55 45 45 57 57 53 10 25 25 353 55 70 45 111 150 138 103 250 268 58 49 55 49 6 5 354 74 38 48 97 93 298 273 264 266 275 296 323 1 11 20 21
49 50 56 65 71 72 73 69 62 61 63 65 65 63 61 59 59 56 52 53 65 75 67 57 47 45 57 77 99 81 70 87 327 348 4 9 16 24 34 40 47 55 63 64 54 50 49 35 44 59 53 60 42 45 37 1 44 87 54 61 133 139 127 198 213 104 109 67 33 345 320 324 68 37 182 118 147 238 257 266 282 299 336 34 34 25 22 21
49 49 57 65 70 72 68 59 55 59 64 66 65 63 62 62 62 62 61 61 65 75 69 57 44 48 66 77 81 76 81 65 339 354 6 10 22 27 39 47 49 62 63 52 44 44 43 38 53 63 71 71 56 58 60 37 46 82 94 6 134 134 138 177 178 135 124 96 321 245 68 41 90 48 166 149 228 249 278 302 329 26 70 58 43 30 25 23
47 47 54 62 68 67 60 56 55 59 63 63 65 64 64 64 63 64 66 65 62 59 54 57 54 53 73 78 77 70 66 349 347 1 9 16 31 32 44 49 48 59 55 45 40 38 35 44 54 67 73 63 67 78 60 57 48 64 116 194 134 130 226 204 200 158 159 153 12 63 79 231 215 163 134 222 249 259 286 339 24 68 64 51 49 32 23 22
46 45 51 61 67 65 61 59 58 60 61 63 65 65 66 64 63 64 68 68 65 63 61 68 76 82 83 82 87 71 28 345 355 5 13 22 34 39 48 47 45 52 49 41 38 39 45 39 32 78 100 91 82 62 352 78 61 57 123 140 129 174 283 272 286 262 230 207 72 50 331 258 236 178 227 233 241 263 309 12 32 63 52 42 55 35 27 26
45 45 52 63 67 64 61 57 57 57 58 62 63 63 65 65 65 66 68 67 66 66 65 70 75 77 74 60 60 70 355 349 12 12 17 25 33 41 46 42 41 45 43 39 36 36 43 28 15 95 109 90 66 40 20 86 117 139 112 103 100 79 17 58 1 313 285 233 99 28 298 277 256 6 279 251 243 269 358 17 18 57 52 34 47 35 33 30
44 48 55 64 65 63 61 60 57 54 55 59 61 64 64 64 66 68 72 70 67 67 67 67 66 67 65 56 61 69 354 3 19 16 18 22 28 34 37 36 35 36 35 37 35 30 31 26 188 127 86 72 63 50 41 72 114 114 99 81 37 25 16 22 19 350 342 254 320 37 313 324 6 356 238 240 243 250 41 19 24 50 40 24 37 33 34 27
47 52 58 67 71 71 70 66 61 57 54 53 58 64 62 59 62 68 74 72 69 67 64 61 59 63 62 56 57 27 8 15 17 19 23 17 24 31 31 33 30 29 28 31 30 29 36 46 76 92 73 112 98 53 62 59 91 108 90 92 328 4 15 352 360 340 356 345 329 42 45 348 323 251 246 241 214 84 60 43 32 33 14 10 22 29 30 21
52 58 66 77 81 78 71 64 59 55 52 50 54 61 60 56 56 63 68 69 66 58 58 59 57 61 65 62 19 14 15 17 18 23 30 22 27 32 31 30 26 27 28 30 30 34 45 57 71 83 69 89 104 39 102 46 68 187 44 90 332 9 1 324 352 343 8 1 337 40 51 307 269 262 269 258 143 92 43 35 17 6 355 357 15 27 20 13
60 67 76 84 82 72 59 51 49 47 47 47 47 56 61 56 58 65 65 63 58 49 49 49 46 56 62 90 349 15 12 19 24 21 19 19 22 24 25 31 31 32 33 36 43 45 56 67 69 75 55 65 68 25 52 19 36 327 349 45 27 26 323 308 334 10 18 333 360 59 161 272 282 285 283 255 156 126 61 12 345 342 348 354 16 24 6 3
66 73 79 79 68 52 40 38 41 45 49 47 49 57 72 74 75 79 74 68 58 50 53 52 50 61 65 92 4 10 12 21 22 15 9 8 15 13 5 19 32 38 43 45 57 55 53 64 65 55 357 7 33 45 30 3 20 23 20 348 349 28 317 309 304 47 19 303 360 59 202 276 283 281 290 251 149 118 124 235 288 326 348 1 11 11 358 352
67 71 71 64 50 43 37 35 37 48 55 55 58 60 71 90 93 91 83 74 60 50 55 50 47 72 89 25 348 2 10 9 6 9 11 8 14 5 358 14 29 36 55 50 54 49 38 57 68 61 25 14 35 57 44 25 355 6 49 311 307 3 336 321 329 43 17 316 339 30 215 284 283 288 316 284 145 114 141 216 274 315 343 5 5 353 353 349
64 69 68 63 56 48 36 31 31 48 65 73 72 67 68 72 92 115 72 50 46 42 48 35 34 79 72 356 349 352 348 349 358 9 12 12 14 10 10 22 10 6 53 42 33 28 18 41 75 68 58 36 26 44 59 31 338 339 23 346 284 332 331 332 329 355 11 355 329 2 119 263 280 291 310 280 157 126 158 211 257 287 347 0 348 335 340 345
57 68 67 61 52 36 25 21 22 40 76 94 84 75 70 66 67 64 45 44 28 12 34 20 21 82 40 358 355 325 323 338 360 8 11 14 12 15 20 21 350 353 30 26 19 22 9 22 77 79 43 29 23 38 59 26 300 285 330 344 317 317 310 318 319 343 1 354 335 4 344 296 302 302 305 272 164 142 183 213 244 287 352 344 333 326 320 327
45 53 53 42 28 17 13 13 20 33 58 130 117 85 68 58 59 54 48 55 57 33 39 358 8 100 7 334 328 326 325 341 5 9 11 11 0 11 19 18 9 23 49 17 9 21 16 33 50 46 14 2 0 38 86 219 227 227 258 265 300 315 295 287 299 340 355 349 1 14 332 307 313 315 322 301 145 116 151 227 296 334 348 328 332 322 302 306
37 38 37 20 8 5 9 16 21 28 36 134 180 89 26 26 42 40 36 48 63 73 97 318 5 87 9 312 326 344 347 346 13 13 10 5 351 6 12 5 14 47 50 359 347 6 49 63 44 2 314 304 309 335 242 241 232 207 200 224 291 311 304 298 288 345 9 358 318 344 324 310 311 311 317 311 118 93 117 148 345 350 347 324 311 299 295 296
34 32 28 16 12 12 16 23 28 35 45 82 123 81 82 88 75 122 2 46 59 67 82 64 66 81 1 308 336 354 0 349 12 12 10 6 2 17 2 358 28 34 8 331 337 351 48 63 23 282 257 272 306 334 312 340 147 171 166 285 326 316 300 306 279 330 16 21 281 329 335 321 321 318 321 23 126 158 197 188 283 292 329 309 268 276 290 300
31 28 25 19 21 23 23 32 43 55 61 75 86 84 103 119 106 139 151 81 45 36 67 59 60 53 335 359 356 357 10 11 4 1 6 9 19 36 3 19 50 27 342 1 21 6 44 54 325 280 255 282 357 18 9 35 108 88 46 37 338 308 296 304 299 342 358 58 282 321 330 315 310 317 340 46 118 252 245 215 210 197 314 291 266 273 294 318
29 26 25 19 22 27 31 39 48 65 70 77 85 90 104 102 111 136 105 96 70 3 30 39 51 19 357 25 4 360 39 36 355 341 358 7 21 52 61 44 51 22 3 31 53 48 57 14 315 307 352 2 358 6 10 17 62 50 38 61 328 323 342 313 325 343 339 127 264 306 308 301 315 338 350 4 1 320 328 317 261 212 244 256 265 276 286 305
28 25 25 19 21 30 41 47 55 73 76 85 90 95 112 104 107 132 93 86 67 9 30 48 103 53 17 5 353 355 68 48 310 332 355 11 18 26 76 85 64 44 23 48 69 81 95 284 311 18 34 39 16 2 16 17 4 341 229 92 324 314 310 258 290 328 331 342 331 340 356 315 336 354 325 320 346 334 344 340 311 298 293 283 291 289 277 279
26 24 24 21 22 36 53 52 62 79 80 86 92 94 102 96 90 113 104 67 24 329 3 39 101 30 3 353 353 347 137 35 22 339 352 13 14 1 62 105 78 45 308 93 72 77 69 298 341 28 18 36 59 22 21 25 357 334 268 195 240 267 243 275 308 328 8 19 351 25 40 307 325 343 306 312 337 318 326 327 293 288 310 310 291 284 287 286
27 26 27 27 29 36 52 54 65 85 84 78 93 100 93 92 81 77 99 68 24 317 356 2 25 7 350 348 348 344 75 0 335 5 8 12 1 134 63 359 51 43 226 144 77 85 1 345 37 61 31 27 47 52 60 63 20 345 297 164 157 284 292 321 334 352 56 345 321 43 84 271 319 327 295 310 324 311 322 322 294 284 293 291 272 273 287 287
27 27 31 35 37 37 55 109 88 89 90 96 107 101 92 98 71 40 61 49 17 328 360 341 333 2 345 345 351 49 78 320 321 20 18 12 355 99 69 7 25 21 325 114 45 27 355 353 17 35 32 24 23 12 319 65 31 313 259 84 350 309 305 324 46 48 89 263 328 16 86 181 298 290 281 315 330 321 335 333 318 307 280 273 271 269 272 268
29 27 31 35 38 43 62 92 86 83 111 136 127 89 86 90 31 41 78 70 357 353 27 319 332 353 339 353 14 69 93 314 4 356 352 17 12 23 70 32 92 358 344 97 77 337 20 10 3 6 21 22 358 323 286 138 49 267 225 49 301 293 292 124 95 48 302 49 358 326 13 76 274 278 300 346 357 328 331 327 318 319 294 275 275 272 269 265
34 30 29 30 37 44 53 66 81 105 127 144 127 92 83 44 23 53 74 98 326 354 154 326 348 342 342 3 16 41 11 359 73 327 340 24 16 23 87 47 126 109 347 76 104 260 23 29 200 76 46 2 297 292 270 167 250 278 286 59 345 24 65 85 90 79 26 50 342 289 348 41 283 289 324 5 17 321 317 313 296 299 294 275 271 275 269 264
35 34 32 29 35 36 43 61 78 116 135 140 131 88 51 41 62 60 47 97 322 331 276 8 1 339 3 16 356 3 23 4 328 335 354 21 1 21 95 230 97 104 1 46 83 184 294 282 183 119 85 266 283 298 265 192 253 309 10 53 41 35 37 55 57 71 60 21 282 262 310 45 302 289 287 328 313 276 288 311 304 303 302 282 268 271 263 251
32 33 33 33 38 33 34 56 69 122 128 116 125 24 29 28 64 85 71 275 285 327 359 16 350 4 25 37 358 349 11 345 334 8 9 355 3 16 33 12 34 54 14 18 34 17 359 7 304 259 262 277 317 318 326 250 291 347 7 16 34 10 8 25 357 31 60 334 273 249 293 61 243 283 284 292 288 266 253 286 299 296 289 279 268 263 255 247
28 30 31 34 39 38 45 58 62 121 110 75 68 39 74 44 31 89 286 330 344 321 11 345 315 4 11 21 16 342 338 340 351 41 26 13 31 25 37 35 343 7 14 354 352 360 3 291 311 305 285 35 7 338 347 348 351 7 3 16 51 17 8 22 344 3 38 283 256 264 350 350 226 260 276 284 288 283 267 267 277 276 272 277 273 265 261 257
24 28 31 32 36 37 45 52 57 125 131 34 61 49 77 76 41 207 279 331 14 314 28 271 309 347 357 10 8 333 347 352 345 23 40 59 52 31 41 33 15 24 10 313 345 354 342 305 335 357 332 23 51 35 349 335 343 351 344 22 64 52 27 7 322 336 318 282 275 319 357 300 288 278 249 266 279 272 275 279 278 274 272 276 273 272 277 272
21 28 29 29 30 30 33 33 45 93 57 65 73 50 63 77 155 184 289 264 230 333 1 53 327 347 26 42 341 313 15 7 344 16 12 27 39 8 0 9 16 39 83 41 24 14 10 315 327 15 340 6 55 79 195 222 314 310 277 76 76 95 77 6 286 270 291 297 303 322 3 228 301 279 240 279 292 280 285 296 307 305 288 285 286 287 286 278
22 30 27 24 23 22 22 22 31 66 70 77 64 57 78 119 216 160 219 251 252 341 319 332 29 35 8 342 303 322 29 299 2 40 16 25 58 12 357 341 351 19 60 45 8 5 31 269 274 321 318 36 38 295 167 130 324 291 126 72 55 151 135 119 223 212 239 318 299 307 278 242 267 263 281 322 337 342 332 329 345 330 309 321 316 296 286 280
21 28 26 20 15 11 13 14 15 20 102 88 62 56 124 186 201 151 169 248 148 123 318 337 38 50 348 317 332 351 342 257 10 50 22 25 101 22 5 286 321 15 48 71 5 355 1 278 283 346 347 96 141 284 358 69 325 334 44 57 275 174 129 106 302 291 54 40 278 298 303 290 321 337 317 353 10 1 345 339 337 309 307 331 316 296 295 289
7 30 28 16 9 5 5 5 2 21 82 83 76 87 186 208 164 165 187 26 247 133 91 50 15 37 336 314 326 329 338 312 6 45 32 3 46 103 19 288 270 39 43 93 107 308 301 285 303 26 356 285 185 136 7 1 31 41 47 178 207 70 86 93 9 345 25 11 280 319 306 298 345 332 320 1 8 346 335 329 322 314 328 337 311 298 292 283
357 57 42 12 4 1 2 359 351 56 74 70 76 121 157 148 172 188 189 100 224 54 80 115 160 57 202 240 317 316 344 357 4 37 47 345 43 131 97 325 207 107 329 349 19 313 271 291 306 347 263 300 342 83 9 334 12 70 112 167 101 63 18 16 58 8 4 321 293 307 287 277 246 232 314 344 317 295 307 321 330 327 330 319 301 297 292 290
1 53 45 4 2 1 359 358 4 64 66 75 102 150 146 171 261 251 178 118 168 85 78 144 168 70 168 173 287 300 343 15 8 33 60 23 33 117 110 53 281 343 340 25 130 279 6 325 294 300 286 304 349 47 16 325 338 24 43 359 36 116 150 332 26 144 133 289 304 314 302 282 236 212 260 279 247 237 270 320 334 317 312 307 296 294 290 291
16 58 2 356 1 357 356 16 44 53 61 99 155 163 99 168 274 288 210 195 79 107 101 177 147 94 191 217 276 297 352 22 342 17 51 22 23 52 77 84 294 314 339 37 68 309 4 64 261 299 335 356 357 1 305 276 335 3 24 22 18 25 48 23 321 142 132 167 280 320 304 282 257 220 226 247 237 216 232 321 330 298 307 313 302 297 288 284
42 51 297 350 358 348 3 39 43 48 80 108 118 118 101 141 172 325 279 224 202 229 155 140 133 123 161 190 288 262 333 355 328 2 320 298 61 21 356 147 186 305 341 28 37 2 5 72 254 303 338 355 290 262 202 172 166 163 140 119 114 46 59 64 326 315 70 163 178 199 284 277 270 236 215 226 229 224 234 320 327 300 305 310 304 299 286 278
65 62 285 344 350 347 45 55 28 46 94 100 66 131 74 102 115 49 338 49 118 259 58 92 105 106 133 157 250 178 143 339 322 9 286 262 200 204 200 111 150 167 38 16 333 274 143 90 295 274 283 290 291 299 122 160 159 139 146 157 140 107 102 121 249 278 314 264 176 127 265 269 265 242 222 232 241 243 255 300 309 300 302 302 301 303 293 281
91 169 276 348 345 354 79 61 3 30 55 271 300 323 7 72 128 106 29 89 139 333 42 62 80 83 141 176 111 136 188 210 208 255 259 250 250 224 178 84 158 115 65 5 292 310 90 65 349 282 288 315 321 337 26 39 97 114 247 192 148 168 136 152 185 189 249 263 182 85 275 266 274 276 256 260 271 276 282 287 290 299 308 304 299 302 301 293
116 214 270 357 353 25 107 95 132 76 26 253 28 5 339 32 105 75 65 207 147 132 109 123 227 123 132 120 104 153 237 89 182 264 248 209 243 279 56 44 111 125 117 197 199 326 304 13 20 346 338 342 350 353 343 345 16 174 252 227 177 137 104 99 97 84 291 237 164 136 253 256 268 300 305 304 310 311 304 299 295 294 299 302 301 301 298 293
57 271 277 359 21 64 107 153 146 134 160 129 89 83 21 42 62 146 202 226 189 153 140 149 183 104 105 90 72 84 318 15 211 285 9 250 259 23 30 12 87 137 212 201 134 133 224 215 132 80 24 313 316 314 307 321 317 295 295 181 190 124 103 119 2 88 244 237 159 172 237 266 284 293 305 314 319 317 312 313 315 299 285 290 295 298 298 294
81 70 303 344 23 56 72 100 107 119 157 143 114 149 122 84 289 247 147 161 123 136 125 126 132 94 93 106 64 16 307 319 346 2 285 262 265 304 356 4 67 148 160 72 59 86 102 245 212 182 196 221 251 264 271 7 302 282 278 237 228 242 210 174 139 161 202 197 200 226 242 283 291 288 300 312 311 309 307 309 312 305 301 301 297 296 296 288
97 110 100 329 0 38 43 28 67 104 155 147 129 160 148 141 277 342 84 271 10 83 77 101 141 154 178 168 127 309 283 326 357 313 234 242 263 289 332 68 54 322 72 54 15 72 95 287 240 205 229 243 254 269 286 316 282 266 269 258 232 220 196 175 193 210 164 130 249 247 227 254 274 280 293 300 299 300 300 301 302 301 300 299 296 297 295 288
62 144 155 142 219 75 59 48 94 98 106 108 98 123 140 148 179 185 198 305 5 17 100 72 232 200 184 175 143 146 279 339 320 257 237 241 270 320 1 78 27 333 24 39 348 83 121 267 248 199 253 265 263 268 269 265 262 257 258 259 243 211 197 206 220 210 168 195 245 256 218 246 267 280 286 286 289 294 294 294 294 294 289 287 291 293 288 286
74 114 107 26 121 166 141 84 106 101 98 97 89 134 161 168 186 203 171 85 359 309 131 197 262 224 180 178 135 135 195 214 288 269 212 202 260 308 342 318 329 351 44 75 347 48 138 261 275 232 277 275 265 265 261 251 260 261 249 247 244 225 210 219 231 219 210 235 253 266 275 272 270 272 276 281 286 287 288 290 291 290 289 290 294 290 283 280
128 143 155 60 72 113 56 51 87 92 77 80 113 171 169 170 183 201 166 138 157 257 174 208 248 213 162 168 151 187 213 182 202 249 185 166 298 246 220 239 147 43 32 109 353 337 247 284 332 32 311 286 276 285 279 248 257 269 266 255 246 238 224 226 235 226 220 244 254 259 269 273 269 266 270 278 283 286 287 289 287 285 286 292 294 287 280 276
107 123 136 107 75 10 358 42 84 103 96 111 165 170 184 197 191 178 186 185 170 174 182 196 207 134 107 152 195 239 231 182 187 214 177 171 246 218 218 238 142 130 155 160 118 357 165 283 357 42 346 287 282 336 307 281 265 271 277 267 242 226 218 218 221 207 201 219 238 248 256 259 264 277 284 271 274 281 280 279 282 284 282 283 283 282 277 273
103 83 103 105 90 331 114 77 64 109 186 223 173 166 208 224 197 166 153 224 200 189 190 181 158 110 97 195 226 235 213 182 196 210 178 167 222 182 195 121 126 132 165 157 112 89 142 129 1 44 326 277 291 320 308 306 315 278 266 243 206 193 206 225 231 215 204 193 183 213 237 245 262 306 304 287 285 285 277 271 273 278 280 277 274 273 271 269
Height
871 869 869 868 867 866 866 865 864 864 863 863 862 862 861 860 859 858 857 856 855 854 853 853 852 851 849 848 847 846 846 841 839 839 842 855 859 854 850 846 842 839 836 834 830 828 826 826 826 823 821 825 831 834 834 838 840 842 858 875 884 892 892 890 891 889 888 888 886 885 884 884 885 884 881 880 883 883 881 880 881 880 880 879 879 878 876 874
872 871 870 869 868 868 867 866 865 865 865 865 864 863 862 861 860 859 858 857 856 855 854 853 851 851 849 848 848 846 846 844 842 843 850 858 856 852 850 845 843 841 838 835 833 832 830 832 830 825 827 834 841 839 837 843 846 854 870 879 887 894 892 889 889 888 888 888 886 885 885 885 886 886 882 882 886 884 880 880 880 880 879 879 879 878 876 874
873 872 871 870 870 869 868 868 867 867 867 866 866 864 863 862 862 860 859 859 857 856 855 853 852 850 848 847 847 846 847 845 844 849 856 858 855 853 851 847 846 843 841 839 837 836 835 836 832 829 833 841 848 844 843 849 853 863 870 880 891 891 889 890 889 888 888 887 886 885 885 886 887 886 884 885 887 886 885 884 881 880 878 878 879 878 876 873
875 874 873 872 872 871 870 869 869 869 868 867 866 865 864 863 862 861 860 859 857 856 855 854 851 848 847 846 846 847 846 845 852 862 863 860 857 856 852 850 848 845 845 842 840 839 837 837 833 833 838 847 853 849 853 858 858 867 872 879 890 889 888 890 888 888 888 887 887 886 886 887 887 886 886 887 887 887 887 886 884 882 880 879 879 878 876 874
877 876 875 874 873 873 872 871 871 870 869 869 867 866 865 864 863 862 860 859 858 857 855 854 852 848 845 844 846 846 845 854 866 870 866 863 861 858 856 853 850 849 848 843 842 840 838 838 836 838 845 855 859 857 865 867 863 874 881 883 887 888 888 889 888 889 888 888 888 887 887 886 887 888 888 888 888 889 886 885 884 883 881 880 879 878 876 875
878 877 876 876 875 874 874 873 873 872 871 870 869 868 867 866 865 863 862 860 859 858 856 855 854 851 847 845 847 845 850 869 878 872 868 866 863 861 859 856 854 852 849 845 844 843 842 843 841 846 854 862 867 868 872 872 868 877 886 887 886 886 887 887 888 888 888 888 888 888 887 886 887 889 889 888 888 887 885 884 883 882 882 881 880 878 877 876
880 879 878 877 876 876 875 874 874 873 872 871 870 869 868 867 866 865 863 862 861 859 858 857 856 855 853 850 849 850 861 877 880 874 871 868 865 864 861 859 857 852 849 848 849 849 850 851 850 855 860 865 870 874 875 875 873 877 885 888 886 886 886 886 887 887 888 887 888 888 886 887 887 888 888 888 887 885 884 883 883 882 881 880 879 879 879 878
881 880 879 879 878 877 876 876 875 874 873 873 872 871 870 869 867 867 865 863 862 860 859 858 857 857 855 854 851 855 870 880 880 876 873 871 868 866 863 861 858 854 852 853 855 854 854 856 859 860 863 869 872 874 876 876 878 881 885 887 887 887 886 886 887 887 887 886 887 887 886 887 886 887 887 886 885 884 883 882 882 882 881 881 880 880 880 878
882 881 880 879 879 878 877 877 876 875 875 874 873 872 871 870 869 868 866 865 864 861 861 858 859 858 856 858 849 854 878 884 879 877 874 872 870 868 865 862 861 858 856 857 857 855 856 860 862 861 864 872 873 875 876 875 880 884 885 886 886 886 886 887 887 886 887 886 887 886 886 887 886 887 885 884 884 883 883 882 883 882 881 882 881 881 880 879
883 882 881 880 880 879 878 878 877 876 876 875 874 873 872 871 870 869 867 866 864 863 863 861 862 859 857 856 847 860 886 884 879 878 875 874 872 869 866 864 864 861 860 861 859 858 860 862 864 862 863 870 874 877 877 876 881 884 885 886 886 886 886 887 886 886 887 886 886 886 886 885 886 887 885 882 884 883 883 884 884 882 882 883 882 881 880 879
884 883 882 881 880 880 879 878 878 877 876 876 875 874 873 872 871 870 868 867 866 864 865 864 863 859 856 857 859 877 888 881 880 879 875 875 872 870 868 867 867 864 864 863 862 863 864 864 864 863 865 871 876 878 879 880 883 884 886 887 888 888 887 887 886 886 887 885 884 886 886 886 887 887 883 881 883 883 883 885 884 883 883 883 882 881 880 879
885 884 883 882 881 881 880 879 879 878 877 876 875 875 873 873 871 871 869 868 868 866 867 865 864 862 855 859 875 887 886 881 882 879 877 876 873 873 871 871 870 868 868 866 867 867 865 865 863 864 870 875 879 881 882 883 884 885 886 887 890 890 888 889 888 887 887 885 884 886 885 885 887 884 880 881 883 883 884 885 885 884 884 883 882 880 880 879
886 885 884 883 883 882 881 881 880 879 878 877 876 875 874 874 872 871 870 869 869 868 868 866 867 863 854 867 886 887 884 884 882 880 879 877 876 876 874 874 872 871 871 869 870 869 868 868 865 868 874 876 881 882 882 883 884 887 888 889 891 890 889 890 890 889 887 884 884 885 884 883 884 881 879 882 883 883 885 886 886 885 884 883 882 881 880 880
887 886 886 885 884 883 882 882 881 880 879 878 877 875 875 875 873 872 871 871 870 869 869 867 868 862 860 879 890 885 886 885 882 881 879 878 878 876 875 875 873 873 872 871 872 871 871 870 867 871 877 881 883 882 884 887 888 891 890 892 897 894 889 890 891 891 889 886 885 886 885 882 882 880 880 882 883 883 884 886 887 885 884 883 882 881 880 880
888 888 887 886 885 884 884 883 882 882 880 880 878 876 876 875 874 874 873 873 871 871 870 868 867 865 870 885 889 887 888 884 883 883 881 880 878 877 876 874 874 874 873 873 873 873 873 870 871 878 884 885 885 885 888 889 893 898 892 890 899 899 894 892 892 893 893 890 887 886 886 884 882 881 881 883 883 883 885 887 887 885 884 884 883 882 881 880
889 888 887 887 886 885 885 884 883 883 882 881 879 877 877 876 876 875 874 873 872 873 871 870 870 867 876 889 890 888 888 886 886 886 884 883 880 880 878 875 876 875 874 875 874 874 874 873 879 888 892 892 894 896 892 891 897 903 901 896 899 902 900 894 891 895 897 892 889 887 887 885 882 879 881 883 883 883 885 886 886 886 884 884 883 883 882 881
889 889 888 887 886 886 885 884 884 884 883 883 880 880 878 878 877 875 875 873 873 874 871 873 873 869 880 893 893 892 892 892 889 887 885 883 882 881 878 877 877 875 876 875 874 875 875 879 886 892 896 901 907 902 890 896 904 906 911 908 905 909 905 896 893 896 898 893 891 890 889 887 883 882 882 883 883 884 884 885 886 886 884 885 885 883 882 882
890 890 889 888 887 887 886 885 884 884 884 883 882 881 879 880 879 876 875 873 873 872 871 875 873 876 892 899 899 900 897 894 891 889 886 884 884 882 880 879 878 876 876 877 878 880 880 884 889 891 899 908 916 911 899 906 914 913 918 914 910 913 907 901 898 898 900 895 892 893 892 889 886 884 883 882 884 883 883 885 886 886 885 885 885 883 883 882
891 891 890 889 888 887 887 885 884 883 883 882 882 881 880 881 879 878 879 877 879 883 888 893 890 895 907 905 904 903 898 896 893 890 887 885 884 883 882 881 881 879 879 883 884 887 889 890 892 895 906 917 923 924 918 917 920 920 924 922 918 916 908 904 902 902 904 896 893 896 896 893 887 883 881 882 884 884 884 887 887 886 886 885 884 883 883 883
892 892 891 890 889 888 888 886 885 884 882 882 882 881 882 883 884 889 893 890 896 903 907 909 907 907 910 907 905 901 897 897 894 891 888 886 885 884 884 884 884 884 888 893 891 893 894 896 908 914 919 924 923 926 926 923 924 923 923 921 919 917 909 903 903 905 905 899 895 897 898 894 887 883 882 883 885 885 885 885 885 886 885 885 884 883 883 882
893 892 892 891 890 889 888 887 886 884 883 883 882 883 889 891 891 897 903 903 907 910 909 910 910 908 909 908 906 902 901 897 893 893 891 889 887 885 890 892 888 889 898 902 897 897 896 902 920 925 923 926 924 926 925 922 923 921 917 913 911 915 910 903 904 904 906 905 897 896 898 889 884 884 883 884 884 883 884 883 884 886 886 885 884 883 883 882
894 893 893 892 891 890 889 888 887 886 886 884 884 888 895 897 895 898 901 904 910 910 909 910 909 909 910 908 906 905 904 899 895 895 894 893 889 891 899 901 899 902 905 902 899 899 902 913 923 924 925 926 924 925 922 919 920 917 913 909 908 914 910 902 903 904 906 907 898 899 901 888 883 887 886 886 884 883 885 885 884 885 885 885 884 883 882 882
895 894 893 892 892 891 890 889 889 888 888 887 888 892 896 897 898 898 898 901 908 911 911 910 910 911 909 907 908 906 904 906 905 901 899 896 897 900 904 905 908 911 911 905 903 904 908 917 922 924 926 923 920 922 921 917 916 916 914 910 911 917 913 902 902 906 908 908 904 902 899 888 884 886 885 887 888 887 888 888 887 887 886 885 885 883 883 882
896 895 894 893 892 892 891 891 890 890 890 891 892 894 897 897 898 898 899 903 907 910 912 912 912 912 911 910 910 908 908 911 911 907 904 903 903 905 907 910 911 913 919 918 913 912 916 921 924 924 924 922 918 919 923 918 912 916 917 913 915 918 920 915 911 912 909 906 908 900 886 882 884 884 883 887 889 887 889 889 887 887 887 886 885 884 884 883
896 895 894 893 892 892 892 892 891 892 893 894 894 896 897 897 898 898 899 903 908 910 912 912 912 912 913 912 911 912 911 911 912 911 908 908 907 906 909 913 911 911 920 922 916 915 919 925 925 921 920 921 918 919 927 926 916 912 914 916 918 918 922 924 921 914 898 894 906 903 885 881 886 885 885 887 887 885 887 888 885 886 887 887 886 884 884 884
897 896 895 893 893 892 892 893 894 894 894 895 897 897 897 897 899 898 898 904 911 915 913 911 913 914 913 913 913 913 911 910 912 913 911 910 910 909 908 913 915 915 920 922 918 918 921 926 927 922 921 919 918 921 928 931 921 909 912 919 920 921 923 926 926 912 895 896 910 909 896 891 888 882 885 890 887 882 883 882 882 885 887 886 886 884 883 884
897 896 896 894 894 892 892 893 894 894 895 897 898 897 898 898 898 898 899 907 917 920 917 914 916 917 916 917 915 913 915 915 912 912 913 911 911 910 908 914 917 919 928 925 915 919 923 921 923 923 921 917 918 921 925 931 922 908 915 922 920 922 924 927 928 918 913 914 912 912 909 904 895 883 887 894 886 879 879 878 878 882 885 885 885 884 884 883
898 897 896 895 895 893 893 894 894 895 895 897 898 897 898 898 898 898 899 912 925 923 921 920 918 919 919 919 918 918 922 922 917 915 915 913 913 911 911 918 919 920 931 923 911 922 928 922 923 924 920 918 918 922 926 930 922 911 918 926 923 924 926 929 927 923 929 919 903 911 915 905 896 886 887 892 883 879 880 879 878 879 882 884 883 883 883 883
900 899 897 896 896 895 895 895 895 896 896 897 898 898 898 897 898 898 901 919 929 924 924 923 918 922 925 921 921 925 925 924 924 921 917 916 915 913 916 922 922 921 925 921 916 925 929 928 931 928 924 924 922 923 927 926 920 915 920 924 924 925 926 927 927 926 926 912 901 912 914 904 895 886 886 887 882 882 882 879 879 879 881 883 883 882 882 883
901 900 898 897 896 896 896 895 896 897 897 898 898 898 898 898 899 901 909 925 930 927 929 926 925 932 932 924 922 928 927 927 930 925 919 921 919 917 921 922 922 921 921 923 923 928 932 932 934 932 928 929 927 926 928 927 923 918 918 921 922 926 927 926 932 930 912 899 905 914 915 912 900 887 888 889 886 887 884 880 878 878 879 880 881 882 881 881
902 901 900 898 897 897 896 896 897 897 898 898 898 898 898 899 901 907 922 933 931 931 932 931 936 939 938 935 932 933 932 929 932 929 924 926 925 922 923 924 926 920 916 920 921 925 930 928 930 932 931 933 929 925 926 929 929 921 918 917 911 912 915 912 918 919 901 895 908 914 916 917 904 888 888 889 888 889 886 882 879 877 877 878 879 880 881 881
902 901 900 899 898 898 897 897 898 898 899 898 898 899 896 899 909 921 933 934 931 936 939 939 942 941 941 942 940 941 939 933 934 935 934 934 936 938 938 941 940 923 914 924 925 922 923 926 932 932 932 934 927 921 922 923 924 921 920 917 903 900 907 903 907 914 907 902 909 915 916 913 902 889 887 888 886 886 886 885 883 879 877 877 878 879 880 881
903 903 901 900 899 899 898 898 898 898 898 898 899 899 895 900 921 939 940 933 935 944 947 947 947 946 944 939 938 945 943 937 936 936 939 939 938 943 945 950 950 932 924 934 937 928 919 923 931 928 928 933 929 928 927 922 923 924 924 920 907 907 913 913 922 928 916 906 908 918 918 907 897 890 887 889 886 886 888 887 886 884 881 879 879 879 880 880
904 903 902 901 900 899 899 898 899 899 899 899 898 896 897 910 934 946 940 938 946 950 950 952 948 944 943 939 943 948 941 938 941 937 937 938 938 941 944 947 951 946 940 939 941 940 926 919 925 926 928 932 931 934 935 932 931 930 933 926 915 921 924 924 932 929 922 921 917 913 908 900 897 891 887 890 891 890 889 887 887 885 883 883 880 880 880 878
904 903 902 901 900 900 900 899 899 899 899 899 897 897 905 922 937 940 938 944 951 948 950 955 948 938 939 942 947 950 943 938 942 942 941 943 946 950 951 952 955 955 947 937 941 948 937 925 928 933 934 934 933 936 940 937 931 931 937 929 924 934 933 930 937 935 940 946 929 911 902 896 895 890 888 892 891 890 889 887 886 884 882 883 880 879 879 877
904 904 902 901 901 900 899 899 899 899 900 897 895 906 923 934 939 940 945 951 952 949 947 947 944 936 934 939 943 946 947 943 942 943 944 951 955 955 957 957 960 959 952 944 947 950 940 927 928 934 934 935 936 937 939 936 927 928 933 932 938 947 938 932 939 946 951 945 927 917 908 897 893 888 889 891 887 887 889 886 884 883 882 882 880 880 879 878
904 904 903 903 902 900 900 900 898 898 899 894 899 922 942 947 950 955 957 957 957 957 947 937 943 946 940 939 939 941 944 943 942 940 943 950 952 953 957 958 960 962 959 956 952 953 950 935 929 934 930 932 942 940 937 940 935 929 929 936 946 946 941 941 942 945 947 936 923 921 913 904 900 891 887 888 886 888 889 885 884 883 882 882 881 880 879 878
905 905 904 904 903 902 901 899 899 899 897 901 918 941 952 952 957 963 963 961 959 957 945 937 947 955 949 943 942 947 946 938 939 943 944 947 948 952 958 956 959 962 963 962 954 955 958 939 928 937 934 933 941 937 932 938 939 934 933 939 940 935 937 943 942 940 944 942 934 925 916 911 903 892 887 888 889 889 889 886 885 885 884 884 882 880 879 878
905 904 905 907 904 903 901 899 901 898 894 907 927 941 952 957 961 965 964 963 961 952 943 943 951 956 955 951 947 951 951 943 944 946 944 945 947 952 958 957 958 960 962 963 957 957 960 944 929 934 938 936 934 933 934 935 937 937 936 938 937 935 940 944 943 943 943 947 946 934 920 905 894 891 890 889 889 889 889 888 886 885 886 885 884 882 879 877
905 905 906 908 904 904 904 899 901 901 905 925 939 945 956 961 961 965 965 963 961 953 946 948 951 950 953 958 957 956 955 952 952 948 945 950 950 951 959 961 958 959 962 963 961 959 960 952 939 933 937 936 932 936 940 938 938 937 933 936 937 937 943 944 946 948 945 947 953 950 933 905 889 890 889 885 886 886 888 889 887 885 886 885 884 882 880 877
906 906 907 907 905 906 903 902 916 926 931 943 950 953 960 960 959 965 965 964 963 958 955 955 952 951 952 954 958 961 958 954 954 951 948 952 950 949 960 963 960 961 960 957 960 961 958 957 952 943 937 932 934 946 949 944 946 942 937 940 939 939 944 944 945 949 948 946 948 956 948 914 890 888 886 884 885 885 888 890 887 886 886 884 883 881 880 878
907 909 909 907 906 905 903 914 940 949 943 946 954 957 959 959 959 961 962 963 962 959 959 958 957 958 959 957 960 966 962 953 952 952 950 953 952 952 961 965 963 963 960 956 962 965 962 963 961 951 942 938 941 951 954 951 951 949 946 944 941 943 945 944 945 947 951 952 950 959 954 915 886 887 888 886 887 887 888 889 888 887 885 884 882 879 879 878
908 909 909 907 906 905 906 920 943 953 953 959 964 963 961 961 960 959 961 961 959 958 957 957 960 959 960 964 964 964 962 954 952 954 952 954 957 958 963 966 963 963 962 959 961 964 963 963 960 949 941 944 950 953 955 955 953 947 945 945 942 942 942 944 946 947 952 952 949 958 947 903 882 891 891 889 892 890 889 889 888 887 884 883 881 879 877 876
913 911 910 908 905 904 906 915 930 947 960 963 961 960 961 962 961 958 958 958 958 959 955 957 962 959 962 970 966 965 966 954 949 957 957 954 957 962 966 965 963 963 962 960 961 963 959 958 958 950 939 934 937 940 942 946 947 942 941 944 943 942 944 947 950 951 953 948 946 953 933 892 882 892 889 888 890 888 887 888 887 887 885 882 881 879 877 876
914 912 912 911 906 906 913 920 925 940 956 956 953 956 957 958 962 962 960 960 961 961 956 957 962 960 966 972 967 970 975 961 950 957 961 958 958 963 967 964 964 964 963 964 965 963 959 959 958 955 947 935 926 927 932 938 943 943 942 944 943 943 944 947 952 955 953 949 951 946 915 885 882 887 885 888 890 887 886 885 885 886 884 883 881 878 877 875
913 912 913 913 911 914 924 932 930 934 945 945 944 953 954 951 958 964 962 959 961 963 959 959 963 961 963 966 959 960 971 973 966 960 958 954 954 962 968 965 965 966 964 965 967 964 965 966 960 954 951 943 933 930 935 943 946 945 944 944 944 944 945 949 954 954 949 951 950 933 911 897 890 885 886 889 889 888 887 885 884 884 882 881 880 877 876 875
913 915 918 916 915 918 925 933 933 930 935 934 934 944 950 950 956 960 960 959 960 962 960 960 962 957 954 956 952 952 964 973 971 963 956 955 957 963 968 968 967 966 965 966 967 965 965 963 960 958 952 946 943 941 943 949 950 947 946 945 945 945 946 949 950 945 944 944 930 917 920 917 898 888 890 891 888 888 887 885 883 882 881 880 878 877 876 873
915 920 927 923 919 921 923 927 932 932 933 936 939 944 947 949 950 949 952 959 962 960 955 953 955 954 953 953 948 947 955 958 957 956 955 958 961 959 961 968 970 968 967 967 968 968 964 960 961 963 957 952 952 949 947 950 950 947 946 945 945 946 945 944 943 940 941 933 914 909 921 919 901 891 891 889 888 887 885 884 883 881 880 879 877 876 873 870
919 921 929 928 924 928 931 932 934 932 932 936 941 944 944 941 941 945 953 957 956 958 956 944 942 949 954 956 950 944 946 945 944 949 953 955 959 956 955 959 966 971 969 967 970 971 966 961 963 967 961 954 951 948 948 952 950 945 943 941 941 943 943 941 938 937 937 930 917 916 921 914 899 891 889 887 886 887 885 883 882 879 877 876 876 874 870 868
918 918 923 926 927 933 935 936 934 929 931 935 934 938 942 937 936 945 953 948 941 952 959 944 937 947 954 956 953 944 943 942 940 946 953 953 955 956 953 950 958 970 970 967 972 973 966 960 964 968 960 947 944 945 944 947 947 942 939 937 938 940 940 940 938 936 937 933 923 923 926 915 894 885 888 888 885 885 884 880 879 876 875 874 873 871 869 867
917 917 919 919 925 933 933 934 934 928 928 932 929 934 940 935 935 941 944 944 940 943 949 942 938 948 955 957 954 945 944 947 944 945 951 952 951 952 952 951 956 963 967 969 971 970 967 963 964 968 958 940 939 946 944 946 950 945 934 926 929 937 936 933 932 930 928 926 924 926 924 907 887 882 886 885 883 883 881 877 876 873 872 873 871 869 867 865
918 918 919 916 922 932 932 931 934 929 926 928 929 934 936 933 938 939 934 941 946 942 944 944 941 945 950 950 948 943 945 950 949 950 953 953 953 954 954 957 957 957 962 968 969 970 971 965 963 970 958 935 934 947 951 942 925 909 902 898 904 922 928 922 920 920 917 914 914 911 899 884 880 884 883 880 879 878 875 873 872 871 870 870 868 867 865 862